Hourly Data Report for July 02, 2004

TORONTO CITY
ONTARIO

43°40'00.000" N
79°24'00.000" W
112.50 m
6158355
71508
XTO

Download Data

Hourly Data (July 2004)
Hourly Data Report for July 2, 2004
TIME
LST
Temp Definition
°C
Dew Point Definition
°C
Rel Hum Definition
%
Precip. Amount Definition
mm

Wind Dir Definition
10's deg

Wind Spd Definition
km/h
Visibility Definition
km
Stn Press Definition
kPa
Hmdx Definition


Wind Chill Definition


Weather Definition


00:00 17.9 8.7 55   LegendMM LegendMM LegendMM 100.47     LegendNANA
01:00 16.7 8.7 59   LegendMM LegendMM LegendMM 100.48     LegendNANA
02:00 16.7 9.2 61   LegendMM LegendMM LegendMM 100.50     LegendNANA
03:00 16.1 9.8 66   LegendMM LegendMM LegendMM 100.49     LegendNANA
04:00 15.8 10.9 73   LegendMM LegendMM LegendMM 100.50     LegendNANA
05:00 15.3 11.6 79   LegendMM LegendMM LegendMM 100.54     LegendNANA
06:00 16.0 12.4 79   LegendMM LegendMM LegendMM 100.59     LegendNANA
07:00 17.5 12.6 73   LegendMM LegendMM LegendMM 100.63     LegendNANA
08:00 18.7 12.4 67   LegendMM LegendMM LegendMM 100.66     LegendNANA
09:00 20.0 12.8 63   LegendMM LegendMM LegendMM 100.64     LegendNANA
10:00 21.9 12.5 55   LegendMM LegendMM LegendMM 100.61     LegendNANA
11:00 22.9 13.2 54   LegendMM LegendMM LegendMM 100.59 26   LegendNANA
12:00 21.9 13.7 60   LegendMM LegendMM LegendMM 100.58 25   LegendNANA
13:00 22.1 13.4 58   LegendMM LegendMM LegendMM 100.54 25   LegendNANA
14:00 22.3 13.3 57   LegendMM LegendMM LegendMM 100.53 25   LegendNANA
15:00 22.9 13.3 55   LegendMM LegendMM LegendMM 100.50 26   LegendNANA
16:00 23.8 12.4 49   LegendMM LegendMM LegendMM 100.47 26   LegendNANA
17:00 23.4 12.2 49   LegendMM LegendMM LegendMM 100.44 26   LegendNANA
18:00 22.3 11.4 50   LegendMM LegendMM LegendMM 100.42     LegendNANA
19:00 21.5 10.8 51   LegendMM LegendMM LegendMM 100.42     LegendNANA
20:00 21.0 10.4 51   LegendMM LegendMM LegendMM 100.42     LegendNANA
21:00 19.6 10.7 56   LegendMM LegendMM LegendMM 100.48     LegendNANA
22:00 20.3 11.9 58   LegendMM LegendMM LegendMM 100.49     LegendNANA
23:00 19.5 11.2 59   LegendMM LegendMM LegendMM 100.50     LegendNANA

Notes on Data Quality.

Legend

  • E = Estimated
  • M = Missing
  • NA = Not Available*
  • [empty] = Indicates an unobserved value
Date modified: